Regional Weather Roundup
Issued by NWS

Home | Current Version | Previous Version | Text Only | Print | Product List | Glossary Off
Versions: 1 2 3 4 5 6 7 8 9 10 11 12 13 14 15 16 17 18 19 20 21 22 23 24 25 26 27 28 29 30 31 32 33 34 35 36 37 38 39 40 41 42 43 44 45 46 47 48 49 50

498
ASUS43 KDMX 051801
RWRIA

WEATHER ROUNDUP FOR IOWA
NATIONAL WEATHER SERVICE DES MOINES IA
1200 PM CST MON DEC 05 2016

NOTE: "FAIR" INDICATES FEW OR NO CLOUDS BELOW 12,000 FEET WITH NO
SIGNIFICANT WEATHER AND/OR OBSTRUCTIONS TO VISIBILITY.

* - THESE STATIONS ARE NOT NWS STATIONS...THUS NOT UNDER NWS
QUALITY CONTROL.  THEY ALSO DO NOT REPORT WEATHER SUCH
AS PRECIPITATION OR FOG.

IAZ001>003-012>014-020>022-031>034-043>046-051900-
   NORTHWEST IOWA

CITY           SKY/WX    TMP DP  RH WIND       PRES   REMARKS
CARROLL *      SUNNY     45  37  76 S20G26    29.72F
CHEROKEE *     PTSUNNY   45  33  65 S25G33    29.61F
DENISON *      CLOUDY    45  34  65 S18G33    29.67F
LE MARS *      CLOUDY    43  32  65 S24G31    29.58F
ORANGE CITY *  CLOUDY    43  34  70 S25G31    29.57F
SHELDON *      MOSUNNY   45  36  70 S20G31    29.55F
SIOUX CITY     CLOUDY    44  33  65 S15       29.60F
6HR MIN TEMP:  39; 6HR MAX TEMP:  45;

SPENCER        MOSUNNY   45  34  65 S30G41    29.61F
6HR MIN TEMP:  34; 6HR MAX TEMP:  46;

STORM LAKE *   CLOUDY    45  34  65 S29G38    29.63F
$$

IAZ055>058-069>071-079>083-090>094-051900-
   SOUTHWEST IOWA

CITY           SKY/WX    TMP DP  RH WIND       PRES   REMARKS
ATLANTIC *     SUNNY     48  37  66 S22G30    29.73F
AUDUBON *      SUNNY     46  39  76 S14G21    29.73F
CLARINDA *       N/A     48  37  66 S16G23    29.77F
COUNCIL BLFS * SUNNY     48  32  53 S21       29.70F
CRESTON *      SUNNY     46  36  66 S20       29.79F
HARLAN  *      CLOUDY    46  39  76 S20G29    29.73F
LAMONI         CLOUDY    37  35  92 SE13      29.83F FOG     WCI  29
6HR MIN TEMP:  29; 6HR MAX TEMP:  37;

RED OAK *      SUNNY     48  39  71 S18G25    29.74F
SHENANDOAH *   SUNNY     48  37  66 S24G31    29.75F
$$

IAZ047>049-059>061-072>074-084-051900-
   CENTRAL IOWA

CITY           SKY/WX    TMP DP  RH WIND       PRES   REMARKS
AMES           CLOUDY    39  37  92 SE15      29.80F WCI  31
6HR MIN TEMP:  29; 6HR MAX TEMP:  39;

ANKENY *       SUNNY     45 N/A N/A S13G21    29.82F
BOONE *        CLOUDY    37  36  93 S12       29.77F WCI  30
CHARITON *       N/A     45  39  81 S17       29.83F
DES MOINES     MOSUNNY   48  37  65 S17G25    29.81F
6HR MIN TEMP:  32; 6HR MAX TEMP:  48;

GRINNELL*      CLOUDY    34  33  99 S15       29.86F FOG     WCI  24
KNOXVILLE *    SUNNY     45  36  70 S15G30    29.83F
MARSHALLTOWN   CLOUDY    35  34  96 S16       29.83F FOG     WCI  25
6HR MIN TEMP:  31; 6HR MAX TEMP:  36;

NEWTON *       MOSUNNY   37  36  93 SE13      29.83F WCI  29
PELLA *        SUNNY     42  38  84 S13       29.87F
PERRY *          N/A     46  41  83 S14       29.77F
$$

IAZ004>006-015-016-023>025-035-036-051900-
   NORTH CENTRAL IOWA

CITY           SKY/WX    TMP DP  RH WIND       PRES   REMARKS
ALGONA *       PTSUNNY   45  36  70 S26       29.69F
CLARION *      SUNNY     37  36  93 S20G25    29.75F WCI  27
ESTHERVILLE    CLOUDY    42  36  79 S26G36    29.63F
6HR MIN TEMP:  32; 6HR MAX TEMP:  42;

FORT DODGE *   SUNNY     41  32  70 S15G24    29.74F
MASON CITY     MOSUNNY   34  31  88 SE17      29.77F WCI  23
6HR MIN TEMP:  30; 6HR MAX TEMP:  34;

WEBSTER CITY * SUNNY     37  36  93 S16G23    29.74F WCI  28
IOWA FALLS *     N/A     35  33  91 SE16      29.79F WCI  26
$$

IAZ007>011-017>019-026>030-037>042-050>054-066-051900-
   NORTHEAST IOWA

CITY           SKY/WX    TMP DP  RH WIND       PRES   REMARKS
CEDAR RAPIDS   FOG       31  31 100 SE13      29.89F VSB 1   WCI  21
6HR MIN TEMP:  31; 6HR MAX TEMP:  31;

CHARLES CITY * CLOUDY    34  34 100 SE16      29.81F FOG     WCI  23
CLINTON *      CLOUDY    34  32  92 S12       29.96F FOG     WCI  25
DECORAH *      CLOUDY    32  32 100 SE12      29.83S FOG     WCI  23
DUBUQUE        SNOW      31  31 100 S16       29.91F VSB 1/4 WCI  20
6HR MIN TEMP:  30; 6HR MAX TEMP:  31; 6HR PCP: TRACE;

MONTICELLO *   CLOUDY    32  32 100 SE17      29.91S FOG     WCI  21
OELWEIN *      FOG       32  32 100 S15       29.87S VSB 3/4 WCI  22
WATERLOO       CLOUDY    32  31  96 S15G21    29.85F FOG     WCI  22
6HR MIN TEMP:  31; 6HR MAX TEMP:  33;

$$

IAZ064-065-067-068-078-051900-
   EAST CENTRAL IOWA

CITY           SKY/WX    TMP DP  RH WIND       PRES   REMARKS
DAVENPORT      CLOUDY    32  31  96 S15       29.95F FOG     WCI  22
6HR MIN TEMP:  31; 6HR MAX TEMP:  32;

IOWA CITY      CLOUDY    33  32  96 S14       29.94F FOG     WCI  23
6HR MIN TEMP:  32; 6HR MAX TEMP:  33;

MUSCATINE *    CLOUDY    34  32  93 S12       29.96F WCI  25
QUAD CITIES    CLOUDY    35  32  88 S8        29.96F FOG     WCI  29
6HR MIN TEMP:  32; 6HR MAX TEMP:  35;

$$

IAZ062-063-075>077-085>089-095>099-051900-
   SOUTHEAST IOWA

CITY           SKY/WX    TMP DP  RH WIND       PRES   REMARKS
BURLINGTON     FOG       33  33 100 S17       29.96F VSB 1/4 WCI  22
6HR MIN TEMP:  31; 6HR MAX TEMP:  33;

FAIRFIELD *    CLOUDY    36  34  93 S14       29.91F FOG     WCI  27
FORT MADISON * FOG       36  36 100 S13       29.96F VSB 1/4 WCI  27
KEOKUK *       CLOUDY    36  36 100 S8G14     29.95F FOG     WCI  29
OSKALOOSA *    CLOUDY    36  35  99 S16       29.89F FOG     WCI  26
CENTERVILLE *  CLOUDY    37  37 100 SE13G18   29.89F WCI  29
OTTUMWA        CLOUDY    37  35  92 S16       29.89F FOG     WCI  28
6HR MIN TEMP:  32; 6HR MAX TEMP:  37;

WASHINGTON *   FOG       34  34 100 S15       29.93F VSB 1/2 WCI  24
$$

ABBREVIATIONS USED IN REMARKS
   TC - TEMPERATURES IN CELSIUS
  WCI - WIND CHILL INDEX
   HX - HEAT INDEX
  VSB - VISIBILITY
$$





USA.gov is the U.S. government's official web portal to all federal, state and local government web resources and services.